This is the latest recevied weather packets stored in our database for station/object OK2ILA-10. If no packets are shown the sender has not sent any weather packets the latest 10 day(s).
| Time | Temp. | Humidity | Pressure | Rain* | Wind** | Luminosity | Snow |
|---|---|---|---|---|---|---|---|
| 1777554997 | 12.78° C | 37% | 1029.1 hPa | - | - | - | - |
| 1777554993 | 12.78° C | 37% | 1029.1 hPa | - | - | - | - |
| 1777553196 | 13.33° C | 38% | 1029.6 hPa | - | - | - | - |
| 1777553192 | 13.33° C | 38% | 1029.6 hPa | - | - | - | - |
| 1777552596 | 12.78° C | 38% | 1029.6 hPa | - | - | - | - |
| 1777552592 | 12.78° C | 38% | 1029.6 hPa | - | - | - | - |
| 1777551995 | 13.33° C | 39% | 1029.7 hPa | - | - | - | - |
| 1777551992 | 13.33° C | 39% | 1029.7 hPa | - | - | - | - |
| 1777551395 | 12.22° C | 38% | 1029.7 hPa | - | - | - | - |
| 1777550795 | 12.78° C | 39% | 1029.8 hPa | - | - | - | - |
| 1777550791 | 12.78° C | 39% | 1029.8 hPa | - | - | - | - |
| 1777550195 | 12.22° C | 40% | 1029.9 hPa | - | - | - | - |
| 1777549591 | 12.78° C | 39% | 1029.9 hPa | - | - | - | - |
| 1777548991 | 12.78° C | 39% | 1029.9 hPa | - | - | - | - |
| 1777548394 | 12.78° C | 40% | 1029.9 hPa | - | - | - | - |
| 1777547794 | 12.78° C | 39% | 1029.9 hPa | - | - | - | - |
| 1777547194 | 13.33° C | 38% | 1030.1 hPa | - | - | - | - |
| 1777547190 | 13.33° C | 38% | 1030.1 hPa | - | - | - | - |
| 1777545990 | 12.78° C | 40% | 1030.1 hPa | - | - | - | - |
| 1777545393 | 11.67° C | 40% | 1030.3 hPa | - | - | - | - |
| 1777545389 | 11.67° C | 40% | 1030.3 hPa | - | - | - | - |
| 1777544793 | 11.11° C | 41% | 1030.3 hPa | - | - | - | - |
| 1777544789 | 11.11° C | 41% | 1030.3 hPa | - | - | - | - |
| 1777544193 | 12.22° C | 40% | 1030.3 hPa | - | - | - | - |
| 1777544189 | 12.22° C | 40% | 1030.3 hPa | - | - | - | - |
* Rain since midnight (hover to see other rain measurements)
** Current wind speed in m/s (hover to see current wind gust speed)